Denali Park, AK

5:16 AM AKDT on April 25, 2017 (GMT -0800)
McKinley National Park

Weather History for PAIN - November, 2012

Change the Weather History Date:

Saturday, November 17, 2012

  Actual Average Record
Temperature  
Mean Temperature -24 °F -  
Max Temperature -16 °F 16 °F 44 °F (1964)
Min Temperature -32 °F -1 °F -33 °F (1956)
Degree Days  
Heating Degree Days 89    
Moisture  
Dew Point -30 °F    
Average Humidity 78    
Maximum Humidity 91    
Minimum Humidity 68    
Precipitation  
Precipitation 0.00 in - - ()
Sea Level Pressure  
Sea Level Pressure 29.50 in    
Wind  
Wind Speed 0 mph (North)    
Max Wind Speed 0 mph    
Max Gust Speed -    
Visibility 10 miles    
Events      
Averages and records for this station are not official NWS values.
T = Trace of Precipitation, MM = Missing Value Source: NWS Daily Summary

Daily Weather History Graph

Daily Weather History Graph

Search for Another Location

Airport or City:

Trip Planner

Search our weather history database for the weather conditions in past years. The results will help you decide how hot, cold, wet, or windy it might be!

Date:

Astronomy

Nov. 17, 2012 Rise Set
Actual Time 9:29 AM AKST 3:51 PM AKST
Civil Twilight 8:29 AM AKST 4:51 PM AKST
Nautical Twilight 7:28 AM AKST 5:51 PM AKST
Astronomical Twilight 6:32 AM AKST 6:47 PM AKST
Moon 1:17 PM AKST (11/17) 8:22 PM AKST (11/17)
Length of Visible Light 8h 22m
Length of Day
6h 22m
Waxing Crescent, 21% of the Moon is Illuminated
Nov 17
Waxing Crescent
Nov 20
First Quarter
Nov 28
Full
Dec 6
Last Quarter
Dec 12
New

Hourly Weather History & Observations

Time (AKST) Temp. Dew Point Humidity Pressure Visibility Wind Dir Wind Speed Gust Speed Precip Events Conditions
12:16 AM -29.2 °F -34.6 °F 75% 29.76 in 10.0 mi Calm Calm - N/A   Clear
12:36 AM -29.2 °F -34.6 °F 75% 29.75 in 10.0 mi Calm Calm - N/A   Clear
12:56 AM -29.2 °F -34.6 °F 75% 29.75 in 10.0 mi Calm Calm - N/A   Clear
1:16 AM -29.2 °F -34.6 °F 75% 29.73 in 10.0 mi Calm Calm - N/A   Clear
1:36 AM -29.2 °F -34.6 °F 75% 29.73 in 10.0 mi Calm Calm - N/A   Clear
1:56 AM -29.2 °F -36.4 °F 68% 29.72 in 10.0 mi Calm Calm - N/A   Clear
2:16 AM -31.0 °F -36.4 °F 75% 29.71 in 10.0 mi Calm Calm - N/A   Clear
2:36 AM -32.8 °F -36.4 °F 83% 29.70 in 10.0 mi Calm Calm - N/A   Clear
2:56 AM -32.8 °F -36.4 °F 83% 29.69 in 10.0 mi Calm Calm - N/A   Clear
3:16 AM -31.0 °F -36.4 °F 75% 29.68 in 10.0 mi Calm Calm - N/A   Clear
3:36 AM -32.8 °F -38.2 °F 75% 29.68 in 10.0 mi Calm Calm - N/A   Clear
3:56 AM -32.8 °F -38.2 °F 75% 29.66 in 10.0 mi Calm Calm - N/A   Clear
4:16 AM -32.8 °F -38.2 °F 75% 29.66 in 10.0 mi Calm Calm - N/A   Clear
4:36 AM -32.8 °F -36.4 °F 83% 29.65 in 10.0 mi Calm Calm - N/A   Clear
4:56 AM -32.8 °F -36.4 °F 83% 29.64 in 10.0 mi Calm Calm - N/A   Clear
5:16 AM -32.8 °F -38.2 °F 75% 29.63 in 10.0 mi Calm Calm - N/A   Clear
5:36 AM -32.8 °F -38.2 °F 75% 29.63 in 10.0 mi Calm Calm - N/A   Clear
5:56 AM -32.8 °F -38.2 °F 75% 29.63 in 9.0 mi Calm Calm - N/A   Clear
6:16 AM -32.8 °F -38.2 °F 75% 29.62 in 10.0 mi Calm Calm - N/A   Clear
6:36 AM -32.8 °F -38.2 °F 75% 29.61 in 10.0 mi Calm Calm - N/A   Clear
6:56 AM -32.8 °F -38.2 °F 75% 29.61 in 10.0 mi Calm Calm - N/A   Clear
7:16 AM -32.8 °F -38.2 °F 75% 29.60 in 10.0 mi Calm Calm - N/A   Clear
7:36 AM -32.8 °F -38.2 °F 75% 29.59 in 10.0 mi Calm Calm - N/A   Clear
7:56 AM -32.8 °F -36.4 °F 83% 29.59 in 10.0 mi Calm Calm - N/A   Clear
8:16 AM -32.8 °F -36.4 °F 83% 29.58 in 10.0 mi Calm Calm - N/A   Partly Cloudy
8:36 AM -32.8 °F -36.4 °F 83% 29.57 in 10.0 mi Calm Calm - N/A   Scattered Clouds
8:56 AM -32.8 °F -36.4 °F 83% 29.57 in 10.0 mi Calm Calm - N/A   Partly Cloudy
9:16 AM -31.0 °F -36.4 °F 75% 29.56 in 8.0 mi Calm Calm - N/A   Scattered Clouds
9:36 AM -31.0 °F -36.4 °F 75% 29.55 in 10.0 mi Calm Calm - N/A   Scattered Clouds
9:56 AM -31.0 °F -36.4 °F 75% 29.54 in 10.0 mi Calm Calm - N/A   Clear
10:16 AM -29.2 °F -34.6 °F 75% 29.53 in 10.0 mi Calm Calm - N/A   Clear
10:36 AM -29.2 °F -34.6 °F 75% 29.52 in 10.0 mi Calm Calm - N/A   Clear
10:56 AM -27.4 °F -32.8 °F 75% 29.51 in 10.0 mi Calm Calm - N/A   Clear
11:16 AM -27.4 °F -32.8 °F 75% 29.50 in 10.0 mi Calm Calm - N/A   Clear
11:36 AM -25.6 °F -29.2 °F 83% 29.49 in 10.0 mi Calm Calm - N/A   Clear
11:56 AM -23.8 °F -27.4 °F 83% 29.49 in 9.0 mi Calm Calm - N/A   Mostly Cloudy
12:16 PM -20.2 °F -25.6 °F 76% 29.48 in 6.0 mi Calm Calm - N/A   Scattered Clouds
12:36 PM -20.2 °F -23.8 °F 83% 29.47 in 7.0 mi Calm Calm - N/A   Clear
12:56 PM -16.6 °F -22.0 °F 76% 29.46 in 9.0 mi Calm Calm - N/A   Clear
1:16 PM -18.4 °F -23.8 °F 76% 29.44 in 9.0 mi Calm Calm - N/A   Clear
1:36 PM -16.6 °F -22.0 °F 76% 29.44 in 10.0 mi Calm Calm - N/A   Clear
1:56 PM -16.6 °F -20.2 °F 84% 29.43 in 10.0 mi Calm Calm - N/A   Clear
2:16 PM -16.6 °F -23.8 °F 70% 29.42 in 7.0 mi Calm Calm - N/A   Clear
2:36 PM -18.4 °F -23.8 °F 76% 29.41 in 5.0 mi Calm Calm - N/A   Clear
2:56 PM -20.2 °F -25.6 °F 76% 29.40 in 8.0 mi Calm Calm - N/A   Clear
3:16 PM -20.2 °F -25.6 °F 76% 29.40 in 10.0 mi Calm Calm - N/A   Clear
3:36 PM -20.2 °F -25.6 °F 76% 29.39 in 10.0 mi Calm Calm - N/A   Clear
3:56 PM -22.0 °F -25.6 °F 83% 29.38 in 10.0 mi Calm Calm - N/A   Clear
4:16 PM -22.0 °F -27.4 °F 76% 29.38 in 10.0 mi Calm Calm - N/A   Clear
4:36 PM -23.8 °F -27.4 °F 83% 29.38 in 10.0 mi Calm Calm - N/A   Clear
4:56 PM -23.8 °F -27.4 °F 83% 29.38 in 10.0 mi Calm Calm - N/A   Clear
5:16 PM -23.8 °F -27.4 °F 83% 29.38 in 10.0 mi Calm Calm - N/A   Clear
5:36 PM -23.8 °F -27.4 °F 83% 29.38 in 10.0 mi Calm Calm - N/A   Clear
5:56 PM -22.0 °F -25.6 °F 83% 29.37 in 10.0 mi Calm Calm - N/A   Clear
6:16 PM -20.2 °F -23.8 °F 83% 29.37 in 8.0 mi Calm Calm - N/A   Clear
6:36 PM -20.2 °F -23.8 °F 83% 29.36 in 10.0 mi Calm Calm - N/A   Clear
6:56 PM -20.2 °F -23.8 °F 83% 29.36 in 10.0 mi Calm Calm - N/A   Clear
7:16 PM -20.2 °F -25.6 °F 76% 29.36 in 10.0 mi Calm Calm - N/A   Clear
7:36 PM -20.2 °F -23.8 °F 83% 29.36 in 10.0 mi Calm Calm - N/A   Partly Cloudy
7:56 PM -18.4 °F -23.8 °F 76% 29.36 in 10.0 mi Calm Calm - N/A   Clear
8:16 PM -18.4 °F -23.8 °F 76% 29.35 in 10.0 mi Calm Calm - N/A   Clear
8:36 PM -18.4 °F -22.0 °F 84% 29.35 in 10.0 mi Calm Calm - N/A   Partly Cloudy
8:56 PM -18.4 °F -20.2 °F 91% 29.35 in 10.0 mi Calm Calm - N/A   Mostly Cloudy
9:16 PM -16.6 °F -20.2 °F 84% 29.35 in 10.0 mi Calm Calm - N/A   Mostly Cloudy
9:36 PM -16.6 °F -20.2 °F 84% 29.34 in 10.0 mi Calm Calm - N/A   Scattered Clouds
9:56 PM -16.6 °F -20.2 °F 84% 29.34 in 10.0 mi Calm Calm - N/A   Scattered Clouds
10:16 PM -16.6 °F -20.2 °F 84% 29.34 in 10.0 mi Calm Calm - N/A   Partly Cloudy
10:36 PM -18.4 °F -23.8 °F 76% 29.34 in 10.0 mi Calm Calm - N/A   Clear
10:56 PM -18.4 °F -23.8 °F 76% 29.34 in 10.0 mi Calm Calm - N/A   Clear
11:16 PM -18.4 °F -23.8 °F 76% 29.34 in 10.0 mi Calm Calm - N/A   Clear
11:36 PM -18.4 °F -23.8 °F 76% 29.34 in 10.0 mi Calm Calm - N/A   Scattered Clouds
11:56 PM -18.4 °F -22.0 °F 84% 29.35 in 10.0 mi Calm Calm - N/A   Scattered Clouds